Consulta los datos en tiempo real de la estación meteorológica de Calldetenes
| Hora UTC | 07:15 |
|---|---|
| Temperatura | 12.0 ºC |
| Suelo 15 cm | 12.6 ºC |
| Humedad | 91.3 % |
| Presión | 1014.6 hPa |
| Pluja | 0.0 mm |
| Velocidad viento | 1.6 km/h |
| Dirección viento | NNW |
| Radiación solar | 233.9 W/m² |
| Temperatura (ºC) | Humedad (%) | Presión (hPa) | Velocidad viento (km/h) | Precipitación (mm) | Radiación solar (W/m²) | ||||||||||||||
|---|---|---|---|---|---|---|---|---|---|---|---|---|---|---|---|---|---|---|---|
| Hora UTC | Aire | Suelo 15 cm | Humedad | Presión | Vel. | Dir. | Vel. Max | Dir. | Intent. máx 5 min. | Rad. Sol. | |||||||||
| 00:05 | 8.3 | 8.3 | 97.3 | 1016.0 | 2.6 | ESE | 2.6 | ESE | 0.0 | 0.1 | |||||||||
| 00:10 | 8.4 | 8.3 | 97.7 | 1016.0 | 2.6 | SSE | 4.2 | ESE | 0.0 | 0.1 | |||||||||
| 00:15 | 8.6 | 8.4 | 98.5 | 1016.0 | 2.3 | SSE | 4.2 | S | 0.0 | 0.1 | |||||||||
| 00:20 | 8.8 | 8.6 | 98.5 | 1016.0 | 1.7 | ESE | 3.2 | ESE | 0.0 | 0.2 | |||||||||
| 00:25 | 8.9 | 8.7 | 98.5 | 1016.1 | 1.6 | SE | 3.2 | SSE | 0.0 | 0.1 | |||||||||
| 00:30 | 9.1 | 8.9 | 98.5 | 1016.1 | 1.5 | SSE | 2.8 | SSE | 0.0 | 0.1 | |||||||||
| 00:35 | 9.1 | 9.1 | 97.9 | 1016.1 | 0.3 | SSW | 2.1 | SSW | 0.0 | 0.1 | |||||||||
| 00:40 | 9.1 | 9.2 | 98.1 | 1016.1 | 1.3 | S | 3.2 | ESE | 0.0 | 0.1 | |||||||||
| 00:45 | 9.3 | 9.2 | 98.2 | 1015.9 | 2.7 | SE | 4.6 | ESE | 0.0 | 0.1 | |||||||||
| 00:50 | 9.4 | 9.3 | 98.1 | 1015.9 | 1.1 | SSE | 2.8 | S | 0.0 | 0.1 | |||||||||
| 00:55 | 9.4 | 9.4 | 98.0 | 1016.0 | 1.2 | SE | 2.5 | SE | 0.0 | 0.1 | |||||||||
| 01:00 | 9.6 | 9.5 | 98.2 | 1016.0 | 0.1 | SE | 1.4 | SE | 0.0 | 0.1 | |||||||||
| 01:05 | 9.7 | 9.7 | 98.1 | 1015.9 | 1.7 | S | 3.2 | SSE | 0.0 | 0.1 | |||||||||
| 01:10 | 9.8 | 9.9 | 97.7 | 1015.9 | 1.4 | S | 2.8 | S | 0.0 | 0.1 | |||||||||
| 01:15 | 9.9 | 10.1 | 97.3 | 1015.9 | 0.2 | SSW | 1.4 | SSW | 0.0 | 0.1 | |||||||||
| 01:20 | 9.9 | 10.1 | 96.7 | 1015.9 | 0.2 | NNE | 1.1 | NNE | 0.0 | 0.1 | |||||||||
| 01:25 | 9.9 | 10.1 | 96.5 | 1015.9 | 0.1 | ENE | 1.1 | NE | 0.0 | 0.1 | |||||||||
| 01:30 | 9.9 | 10.0 | 96.6 | 1015.9 | 0.0 | ESE | 1.1 | ESE | 0.0 | 0.2 | |||||||||
| 01:35 | 10.1 | 10.0 | 97.0 | 1015.7 | 0.9 | ESE | 3.2 | SE | 0.0 | 0.1 | |||||||||
| 01:40 | 10.1 | 10.1 | 96.6 | 1015.7 | 0.5 | ESE | 2.1 | ESE | 0.0 | 0.1 | |||||||||
| 01:45 | 10.2 | 10.1 | 96.8 | 1015.6 | 1.3 | ESE | 2.5 | ESE | 0.0 | 0.1 | |||||||||
| 01:50 | 10.2 | 10.1 | 96.6 | 1015.6 | 0.6 | SE | 3.2 | SE | 0.0 | 0.1 | |||||||||
| 01:55 | 10.2 | 10.2 | 96.6 | 1015.6 | 2.4 | E | 3.2 | E | 0.0 | 0.1 | |||||||||
| 02:00 | 10.1 | 10.2 | 96.4 | 1015.6 | 0.8 | ENE | 2.8 | ENE | 0.0 | 0.1 | |||||||||
| 02:05 | 10.1 | 10.1 | 96.5 | 1015.6 | 0.3 | W | 1.8 | NW | 0.0 | 0.1 | |||||||||
| 02:10 | 10.0 | 10.0 | 96.3 | 1015.6 | 1.2 | NW | 2.5 | NW | 0.0 | 0.1 | |||||||||
| 02:15 | 9.9 | 9.9 | 95.9 | 1015.5 | 2.7 | SW | 4.6 | SSW | 0.0 | 0.1 | |||||||||
| 02:20 | 9.8 | 9.8 | 94.7 | 1015.5 | 3.9 | SSW | 6.0 | SSW | 0.0 | 0.1 | |||||||||
| 02:25 | 9.5 | 9.7 | 94.0 | 1015.4 | 3.4 | SSW | 5.3 | S | 0.0 | 0.1 | |||||||||
| 02:30 | 9.4 | 9.6 | 94.7 | 1015.4 | 3.3 | S | 5.3 | S | 0.0 | 0.1 | |||||||||
| 02:35 | 9.4 | 9.5 | 94.4 | 1015.3 | 0.7 | ESE | 2.8 | S | 0.0 | 0.1 | |||||||||
| 02:40 | 9.1 | 9.2 | 94.4 | 1015.3 | 1.5 | N | 2.5 | N | 0.0 | 0.2 | |||||||||
| 02:45 | 9.0 | 8.9 | 95.0 | 1015.1 | 0.0 | NNE | 0.0 | NW | 0.0 | 0.1 | |||||||||
| 02:50 | 9.0 | 8.8 | 95.1 | 1015.1 | 0.0 | SW | 1.1 | SW | 0.0 | 0.1 | |||||||||
| 02:55 | 8.9 | 8.7 | 95.3 | 1015.0 | 0.6 | SSW | 2.1 | SSW | 0.0 | 0.1 | |||||||||
| 03:00 | 9.0 | 8.6 | 96.3 | 1015.0 | 0.4 | SSW | 1.8 | SSW | 0.0 | 0.1 | |||||||||
| 03:05 | 8.7 | 8.5 | 95.7 | 1015.0 | 3.8 | SE | 7.1 | ESE | 0.0 | 0.1 | |||||||||
| 03:10 | 8.6 | 8.3 | 96.2 | 1015.0 | 3.8 | SSE | 6.4 | ESE | 0.0 | 0.1 | |||||||||
| 03:15 | 8.4 | 8.0 | 96.6 | 1015.0 | 4.0 | SSW | 7.1 | SSW | 0.0 | 0.1 | |||||||||
| 03:20 | 8.9 | 8.0 | 98.2 | 1015.0 | 4.9 | S | 7.4 | SSW | 0.0 | 0.1 | |||||||||
| 03:25 | 9.0 | 8.2 | 97.5 | 1014.9 | 3.7 | S | 5.3 | S | 0.0 | 0.1 | |||||||||
| 03:30 | 9.1 | 8.4 | 97.4 | 1014.9 | 3.8 | S | 6.0 | SSE | 0.0 | 0.1 | |||||||||
| 03:35 | 9.1 | 8.6 | 96.8 | 1015.0 | 3.8 | SSW | 6.0 | S | 0.0 | 0.1 | |||||||||
| 03:40 | 8.8 | 8.5 | 95.4 | 1015.0 | 2.0 | SSE | 3.9 | SSW | 0.0 | 0.1 | |||||||||
| 03:45 | 8.5 | 8.3 | 95.7 | 1014.9 | 3.1 | SE | 4.2 | ESE | 0.0 | 0.1 | |||||||||
| 03:50 | 8.2 | 8.1 | 95.7 | 1014.9 | 1.8 | S | 3.9 | SE | 0.0 | 0.1 | |||||||||
| 03:55 | 7.9 | 7.8 | 95.8 | 1015.0 | 2.0 | SSW | 4.2 | SSW | 0.0 | 0.1 | |||||||||
| 04:00 | 8.0 | 7.5 | 97.5 | 1015.0 | 0.3 | SSW | 2.1 | SE | 0.0 | 0.1 | |||||||||
| 04:05 | 8.1 | 7.5 | 97.9 | 1014.8 | 3.2 | ESE | 5.3 | ESE | 0.0 | 0.2 | |||||||||
| 04:10 | 8.0 | 7.6 | 97.6 | 1014.8 | 3.2 | ESE | 4.6 | ESE | 0.0 | 0.1 | |||||||||
| 04:15 | 8.3 | 7.7 | 98.6 | 1014.7 | 6.0 | ESE | 7.1 | ESE | 0.0 | 0.2 | |||||||||
| 04:20 | 8.3 | 7.8 | 97.5 | 1014.7 | 4.5 | SE | 7.1 | ESE | 0.0 | 0.2 | |||||||||
| 04:25 | 7.9 | 7.7 | 97.2 | 1014.7 | 1.0 | SE | 2.8 | SE | 0.0 | 0.5 | |||||||||
| 04:30 | 7.8 | 7.5 | 97.5 | 1014.7 | 0.0 | NNE | 0.0 | SE | 0.0 | 1.6 | |||||||||
| 04:35 | 7.7 | 7.4 | 97.5 | 1014.7 | 0.0 | NNE | 0.0 | S | 0.0 | 1.9 | |||||||||
| 04:40 | 7.6 | 7.3 | 97.8 | 1014.7 | 0.0 | NNE | 0.0 | SSE | 0.0 | 1.7 | |||||||||
| 04:45 | 7.7 | 7.4 | 98.4 | 1014.8 | 0.1 | WSW | 1.4 | WSW | 0.0 | 2.8 | |||||||||
| 04:50 | 7.9 | 7.6 | 99.0 | 1014.8 | 0.0 | W | 1.1 | W | 0.0 | 4.2 | |||||||||
| 04:55 | 8.1 | 7.9 | 99.2 | 1014.9 | 0.6 | NW | 2.1 | NW | 0.0 | 6.0 | |||||||||
| 05:00 | 8.3 | 8.2 | 99.4 | 1014.9 | 1.7 | NNW | 2.8 | N | 0.0 | 6.9 | |||||||||
| 05:05 | 8.5 | 8.5 | 99.4 | 1014.9 | 1.6 | N | 2.5 | N | 0.0 | 8.7 | |||||||||
| 05:10 | 8.5 | 8.7 | 99.2 | 1014.9 | 2.4 | NNE | 4.2 | NNE | 0.0 | 12.6 | |||||||||
| 05:15 | 8.7 | 8.8 | 99.3 | 1014.8 | 1.6 | W | 3.5 | NNE | 0.0 | 20.8 | |||||||||
| 05:20 | 8.9 | 9.0 | 99.1 | 1014.8 | 2.2 | NNW | 4.2 | NW | 0.0 | 33.2 | |||||||||
| 05:25 | 8.9 | 9.2 | 98.7 | 1014.9 | 0.1 | N | 2.1 | N | 0.0 | 36.6 | |||||||||
| 05:30 | 8.9 | 9.2 | 98.7 | 1014.9 | 0.3 | W | 1.8 | W | 0.0 | 33.4 | |||||||||
| 05:35 | 9.1 | 9.3 | 98.6 | 1015.1 | 1.2 | E | 2.1 | SE | 0.0 | 31.2 | |||||||||
| 05:40 | 9.1 | 9.4 | 98.5 | 1015.1 | 0.7 | ENE | 2.1 | ENE | 0.0 | 40.1 | |||||||||
| 05:45 | 9.2 | 9.5 | 98.7 | 1015.1 | 0.0 | SSE | 1.1 | SSE | 0.0 | 46.6 | |||||||||
| 05:50 | 9.4 | 9.6 | 99.0 | 1015.1 | 2.4 | NNW | 5.3 | N | 0.0 | 55.2 | |||||||||
| 05:55 | 9.6 | 9.8 | 98.9 | 1015.0 | 3.3 | N | 7.1 | NNE | 0.0 | 62.5 | |||||||||
| 06:00 | 9.8 | 10.0 | 98.6 | 1015.0 | 5.4 | N | 7.4 | NNE | 0.0 | 67.2 | |||||||||
| 06:05 | 9.9 | 10.2 | 98.4 | 1015.0 | 5.1 | NNE | 8.8 | NE | 0.0 | 69.5 | |||||||||
| 06:10 | 10.0 | 10.3 | 98.2 | 1015.0 | 4.2 | NNE | 8.1 | N | 0.0 | 75.0 | |||||||||
| 06:15 | 10.2 | 10.4 | 98.0 | 1015.0 | 3.7 | NNE | 7.8 | N | 0.0 | 86.5 | |||||||||
| 06:20 | 10.3 | 10.6 | 97.2 | 1015.0 | 6.3 | N | 9.9 | N | 0.0 | 108.3 | |||||||||
| 06:25 | 10.3 | 10.8 | 96.8 | 1015.0 | 3.1 | N | 5.6 | NNE | 0.0 | 115.3 | |||||||||
| 06:30 | 10.5 | 10.9 | 96.8 | 1015.0 | 1.9 | NNW | 4.2 | N | 0.0 | 122.7 | |||||||||
| 06:35 | 10.7 | 11.2 | 96.8 | 1015.0 | 1.8 | NNW | 3.9 | NNW | 0.0 | 134.8 | |||||||||
| 06:40 | 10.9 | 11.5 | 95.8 | 1015.0 | 3.3 | NNW | 5.6 | NNW | 0.0 | 162.6 | |||||||||
| 06:45 | 11.1 | 11.7 | 95.2 | 1014.9 | 2.3 | N | 4.6 | NW | 0.0 | 199.1 | |||||||||
| 06:50 | 11.2 | 11.9 | 94.3 | 1014.9 | 3.4 | NNW | 6.7 | NW | 0.0 | 189.2 | |||||||||
| 06:55 | 11.3 | 12.1 | 94.1 | 1014.8 | 4.0 | N | 7.1 | N | 0.0 | 210.3 | |||||||||
| 07:00 | 11.4 | 12.2 | 94.3 | 1014.8 | 3.5 | NNW | 6.7 | WNW | 0.0 | 217.5 | |||||||||
| 07:05 | 11.6 | 12.3 | 93.3 | 1014.7 | 2.1 | NW | 5.3 | NNW | 0.0 | 214.4 | |||||||||
| 07:10 | 11.8 | 12.4 | 92.7 | 1014.7 | 1.6 | NNW | 4.2 | W | 0.0 | 226.1 | |||||||||
| 07:15 | 12.0 | 12.6 | 91.3 | 1014.6 | 1.6 | NNW | 3.5 | NNE | 0.0 | 233.9 | |||||||||
| Máxima | 12.0 | 12.6 | 99.4 | 1016.1 | 6.3 | N | 9.9 | N | 0.0 | 233.9 | |||||||||
| Mínima | 7.6 | 7.3 | 91.3 | 1014.6 | |||||||||||||||
| Total | 0.0 | ||||||||||||||||||